TimeHST,TemperatureF,Dew PointF,Humidity,Sea Level PressureIn,VisibilityMPH,Wind Direction,Wind SpeedMPH,Gust SpeedMPH,PrecipitationIn,Events,Conditions,WindDirDegrees,DateUTC
12:56 AM,64.9,63.9,96,29.97,10.0,East,5.8,-,N/A,,Clear,90,2013-05-08 10:56:00
1:56 AM,64.4,64.4,100,30.01,10.0,East,5.8,-,N/A,,Scattered Clouds,80,2013-05-08 11:56:00
2:56 AM,63.9,63.9,100,29.95,10.0,ENE,4.6,-,N/A,,Partly Cloudy,60,2013-05-08 12:56:00
3:56 AM,65.8,64.9,97,29.94,10.0,East,4.6,-,N/A,,Scattered Clouds,90,2013-05-08 13:56:00
4:56 AM,64.4,64.4,100,30.00,10.0,ENE,4.6,-,N/A,,Partly Cloudy,70,2013-05-08 14:56:00
5:36 AM,64.4,64.4,100,30.01,10.0,ENE,4.6,-,N/A,,Mostly Cloudy,70,2013-05-08 15:36:00
5:56 AM,66.9,65.8,96,29.95,10.0,East,5.8,-,N/A,,Mostly Cloudy,90,2013-05-08 15:56:00
6:06 AM,66.2,64.4,94,30.01,10.0,East,4.6,-,N/A,,Mostly Cloudy,80,2013-05-08 16:06:00
6:39 AM,66.2,66.2,100,30.02,10.0,East,4.6,-,N/A,,Overcast,80,2013-05-08 16:39:00
6:56 AM,68.0,66.9,96,29.98,10.0,East,4.6,-,N/A,,Mostly Cloudy,90,2013-05-08 16:56:00
7:03 AM,69.8,66.2,88,30.03,10.0,East,4.6,-,N/A,,Mostly Cloudy,90,2013-05-08 17:03:00
7:27 AM,69.8,66.2,88,30.04,10.0,East,3.5,-,N/A,,Overcast,80,2013-05-08 17:27:00
7:56 AM,71.6,66.2,83,30.04,10.0,Calm,Calm,-,N/A,,Overcast,0,2013-05-08 17:56:00
8:56 AM,72.9,66.9,82,30.02,10.0,South,4.6,-,N/A,,Overcast,180,2013-05-08 18:56:00
9:20 AM,75.2,66.2,73,30.07,10.0,Variable,4.6,-,N/A,,Overcast,0,2013-05-08 19:20:00
9:56 AM,77.9,65.8,66,30.02,10.0,SSE,5.8,-,N/A,,Scattered Clouds,160,2013-05-08 19:56:00
10:17 AM,78.8,66.2,65,30.07,10.0,SSW,6.9,-,N/A,,Mostly Cloudy,200,2013-05-08 20:17:00
10:56 AM,78.8,66.2,65,30.07,10.0,South,5.8,-,N/A,,Mostly Cloudy,190,2013-05-08 20:56:00
11:56 AM,79.0,65.8,64,30.00,10.0,WSW,8.1,-,N/A,,Mostly Cloudy,250,2013-05-08 21:56:00
12:19 PM,80.6,66.2,61,30.06,10.0,West,8.1,-,N/A,,Scattered Clouds,260,2013-05-08 22:19:00
12:56 PM,81.9,66.9,60,29.99,10.0,West,6.9,-,N/A,,Partly Cloudy,260,2013-05-08 22:56:00
1:56 PM,82.4,66.2,58,30.03,10.0,WSW,9.2,-,N/A,,Partly Cloudy,250,2013-05-08 23:56:00
2:56 PM,81.9,68.0,63,29.96,10.0,WNW,8.1,-,N/A,,Scattered Clouds,290,2013-05-09 00:56:00
3:56 PM,81.0,66.9,62,29.95,10.0,West,9.2,-,N/A,,Partly Cloudy,270,2013-05-09 01:56:00
4:56 PM,78.8,66.2,65,30.01,10.0,Variable,5.8,-,N/A,,Scattered Clouds,0,2013-05-09 02:56:00
5:56 PM,77.0,66.9,71,29.97,10.0,WNW,5.8,-,N/A,,Clear,300,2013-05-09 03:56:00
6:56 PM,72.9,66.9,82,29.99,10.0,WNW,4.6,-,N/A,,Clear,300,2013-05-09 04:56:00
7:56 PM,70.9,66.9,87,30.00,10.0,Calm,Calm,-,N/A,,Clear,0,2013-05-09 05:56:00
8:56 PM,70.0,65.8,87,30.02,10.0,ENE,5.8,-,N/A,,Clear,70,2013-05-09 06:56:00
9:56 PM,68.0,65.8,93,30.03,10.0,ENE,3.5,-,N/A,,Clear,70,2013-05-09 07:56:00
10:56 PM,66.9,64.9,93,30.04,10.0,East,6.9,-,N/A,,Clear,80,2013-05-09 08:56:00
11:56 PM,66.9,65.8,96,30.03,10.0,East,5.8,-,N/A,,Clear,100,2013-05-09 09:56:00